Flag for Brazil

Past Weather in Curitiba, Paraná, Brazil — Yesterday and Last 2 Weeks

Now
66 °F

Partly sunny.


Feels Like: 66 °F
Forecast: 79 / 58 °F
Wind: 7 mph from Northwest

Location: Curitiba Aeroporto
Current Time: Oct 27, 2020 at 7:30:13 am
Latest Report: Oct 27, 2020 at 7:00 am
Visibility: N/A
Pressure29.83 "Hg(26.80 "Hg at 915m altitude)
Humidity: 83%
Dew Point: 61 °F
Location of CuritibaLocation

Past Weather in Curitiba — Graph

°F

Curitiba Temperature Yesterday

Maximum temperature yesterday: 75 °F (at 12:00 pm)
Minimum temperature yesterday: 57 °F (at 3:00 am)
Average temperature yesterday: 66 °F

High & Low Weather Summary for the Past Weeks

 TemperatureHumidityPressure
High86 °F (Oct 14, 2:00 pm)100% (Oct 13, 6:00 am)30.27 "Hg (Oct 13, 6:00 am)
Low50 °F (Oct 17, 1:00 am)32% (Oct 13, 4:00 pm)29.77 "Hg (Oct 27, 4:00 am)
Average64 °F84%30.08 "Hg
* Reported Oct 12 6:00 am — Oct 27 6:00 am, Curitiba. Weather by CustomWeather, © 2020

Note: Actual official high and low records may vary slightly from our data, if they occured in-between our weather recording intervals... More about our weather records

Curitiba Weather History for the Previous 24 Hours

Scroll right to see more
 ConditionsComfort  
Time TempWeatherWind HumidityBarometerVisibility
6:00 am
Tue, Oct 27
64 °FPartly sunny.3 mph94%29.80 "HgN/A
5:00 am63 °FPartly cloudy.2 mph100%29.80 "HgN/A
4:00 am63 °FPartly cloudy.6 mph94%29.77 "HgN/A
3:00 am63 °FPassing clouds.5 mph100%29.80 "HgN/A
2:00 am63 °FPassing clouds.6 mph100%29.80 "HgN/A
1:00 am63 °FPassing clouds.5 mph100%29.83 "HgN/A
12:00 am64 °FPartly cloudy.6 mph94%29.86 "HgN/A
11:00 pm
Mon, Oct 26
63 °FPassing clouds.3 mph100%29.86 "HgN/A
10:00 pm63 °FPassing clouds.3 mph100%29.86 "HgN/A
9:00 pm66 °FClear.7 mph88%29.86 "Hg10 mi
8:00 pm68 °FPassing clouds.7 mph88%29.86 "HgN/A
7:00 pm68 °FPassing clouds.8 mph83%29.83 "HgN/A
6:00 pm70 °FScattered clouds.9 mph83%29.83 "HgN/A
5:00 pm72 °FPartly sunny.8 mph73%29.83 "HgN/A
4:00 pm75 °FScattered clouds.6 mph65%29.83 "HgN/A
3:00 pm75 °FScattered clouds.9 mph65%29.86 "HgN/A
2:00 pm75 °FScattered clouds.9 mph57%29.89 "HgN/A
1:00 pm75 °FScattered clouds.12 mph57%29.92 "HgN/A
12:00 pm75 °FScattered clouds.12 mph57%29.95 "HgN/A
11:00 am72 °FPartly sunny.6 mph69%29.98 "HgN/A
10:00 am70 °FPartly sunny.6 mph64%29.98 "HgN/A
9:00 am66 °FPartly sunny.12 mph78%29.98 "HgN/A
8:00 am63 °FPartly sunny.10 mph88%29.98 "HgN/A
7:00 am63 °FScattered clouds.8 mph88%29.95 "HgN/A
Weather by CustomWeather, © 2020

See weather overview